Weather History for Middletown, OH

Change the Weather History Date:

Sunday, March 24, 2013

  Actual Average (KDAY) Record (KDAY)
Temperature  
Mean Temperature 34 °F 43 °F  
Max Temperature 37 °F 53 °F 87 °F (1910)
Min Temperature 32 °F 34 °F 4 °F (1974)
Degree Days  
Heating Degree Days 30 22  
Month to date heating degree days 623  
Since 1 July heating degree days 4898  
Cooling Degree Days 0 0  
Month to date cooling degree days 0  
Year to date cooling degree days 0  
Moisture  
Dew Point 31 °F    
Average Humidity 88    
Maximum Humidity 100    
Minimum Humidity 69    
Precipitation  
Precipitation 0.00 in 0.12 in 2.95 in (1913)
Month to date precipitation 2.47  
Year to date precipitation 7.42  
Snow  
Snow 0.00 in 0.10 in 5.80 in (2013)
Month to date snowfall 3.0  
Since 1 July snowfall 22.3  
Snow Depth -    
Sea Level Pressure  
Sea Level Pressure 29.68 in    
Wind  
Wind Speed 11 mph (NE)    
Max Wind Speed 25 mph    
Max Gust Speed 32 mph    
Visibility 8 miles    
Events Rain , Snow    
T = Trace of Precipitation, MM = Missing Value Source: NWS Daily Summary

Daily Weather History Graph

Daily Weather History Graph

Search for Another Location

Airport:

Trip Planner

Search our weather history database for the weather conditions in past years. The results will help you decide how hot, cold, wet, or windy it might be!

Date:

Astronomy

Mar. 24, 2013 Rise Set
Actual Time 7:34 AM EDT 7:53 PM EDT
Civil Twilight 7:07 AM EDT 8:20 PM EDT
Nautical Twilight 6:35 AM EDT 8:52 PM EDT
Astronomical Twilight 6:03 AM EDT 9:24 PM EDT
Moon 5:21 PM EDT (3/24) 5:43 AM EDT (3/24)
Length of Visible Light 13h 13m
Length of Day
12h 19m
Waxing Gibbous, 91% of the Moon is Illuminated
Mar 24
Waxing Gibbous
Mar 27
Full
Apr 3
Last Quarter
Apr 10
New
Apr 18
First Quarter

Hourly Weather History & Observations

Time (EDT) Temp. Windchill Dew Point Humidity Pressure Visibility Wind Dir Wind Speed Gust Speed Precip Events Conditions
12:15 AM 37.6 °F 31.0 °F 28.4 °F 69% 29.92 in 10.0 mi NE 9.2 mph - N/A   Clear
12:35 AM 37.6 °F 29.6 °F 29.3 °F 72% 29.91 in 10.0 mi NE 12.7 mph - N/A   Clear
12:55 AM 37.6 °F 30.0 °F 29.5 °F 73% 29.91 in 10.0 mi ENE 11.5 mph - N/A   Clear
1:15 AM 37.6 °F 32.3 °F 29.7 °F 73% 29.91 in 10.0 mi NE 6.9 mph - N/A   Clear
1:35 AM 35.2 °F 29.5 °F 28.6 °F 77% 29.91 in 10.0 mi NE 6.9 mph - N/A   Clear
1:55 AM 35.1 °F 28.6 °F 29.1 °F 79% 29.91 in 10.0 mi NE 8.1 mph - N/A   Clear
2:15 AM 35.1 °F 27.4 °F 29.3 °F 80% 29.90 in 10.0 mi NE 10.4 mph - N/A   Clear
2:35 AM 35.1 °F 28.6 °F 29.7 °F 81% 29.91 in 10.0 mi NE 8.1 mph - N/A   Clear
2:55 AM 35.1 °F 30.1 °F 29.5 °F 80% 29.92 in 10.0 mi NE 5.8 mph - N/A   Clear
3:35 AM 35.1 °F 27.4 °F 29.8 °F 81% 29.91 in 10.0 mi NE 10.4 mph - N/A   Clear
3:55 AM 35.1 °F 27.9 °F 30.0 °F 82% 29.91 in 10.0 mi NE 9.2 mph - N/A   Clear
4:15 AM 35.1 °F 26.9 °F 30.0 °F 82% 29.90 in 10.0 mi ENE 11.5 mph - N/A   Clear
4:35 AM 35.1 °F 27.4 °F 30.2 °F 82% 29.89 in 10.0 mi NE 10.4 mph - N/A   Clear
4:55 AM 35.1 °F 27.9 °F 30.0 °F 82% 29.88 in 10.0 mi NE 9.2 mph - N/A   Clear
5:15 AM 35.1 °F 27.4 °F 30.0 °F 82% 29.85 in 10.0 mi NE 10.4 mph - N/A   Clear
5:35 AM 35.1 °F 26.4 °F 29.8 °F 81% 29.85 in 10.0 mi NE 12.7 mph - N/A   Clear
5:55 AM 35.1 °F 26.4 °F 29.8 °F 81% 29.84 in 10.0 mi ENE 12.7 mph - N/A   Clear
6:15 AM 35.1 °F 26.4 °F 29.7 °F 81% 29.83 in 10.0 mi ENE 12.7 mph 17.3 mph N/A   Clear
6:35 AM 35.1 °F 25.9 °F 29.7 °F 81% 29.82 in 10.0 mi NE 13.8 mph - N/A   Scattered Clouds
6:55 AM 35.1 °F 27.9 °F 29.3 °F 80% 29.81 in 10.0 mi NE 9.2 mph - N/A   Mostly Cloudy
7:15 AM 35.1 °F 27.4 °F 29.1 °F 79% 29.80 in 10.0 mi NE 10.4 mph - N/A   Overcast
7:35 AM 35.1 °F 25.9 °F 28.9 °F 78% 29.78 in 10.0 mi NE 13.8 mph - N/A   Overcast
7:55 AM 35.1 °F 26.9 °F 28.6 °F 77% 29.80 in 10.0 mi NE 11.5 mph - N/A   Overcast
8:15 AM 35.1 °F 26.4 °F 28.9 °F 78% 29.78 in 10.0 mi NE 12.7 mph - N/A   Overcast
8:35 AM 35.1 °F 26.9 °F 28.8 °F 78% 29.77 in 10.0 mi NE 11.5 mph 17.3 mph N/A   Overcast
8:55 AM 35.1 °F 26.9 °F 28.4 °F 77% 29.78 in 10.0 mi ENE 11.5 mph 16.1 mph N/A   Overcast
9:15 AM 35.1 °F 27.9 °F 28.2 °F 76% 29.78 in 10.0 mi ENE 9.2 mph - N/A   Overcast
9:35 AM 35.1 °F 28.6 °F 27.9 °F 75% 29.77 in 10.0 mi ENE 8.1 mph - N/A   Overcast
9:55 AM 35.1 °F 27.9 °F 27.7 °F 74% 29.76 in 10.0 mi NE 9.2 mph - N/A   Overcast
10:15 AM 35.1 °F 26.4 °F 27.3 °F 73% 29.75 in 10.0 mi NE 12.7 mph - N/A   Overcast
10:35 AM 35.1 °F 26.9 °F 26.8 °F 72% 29.74 in 10.0 mi NE 11.5 mph - N/A   Overcast
10:55 AM 35.1 °F 26.9 °F 26.4 °F 71% 29.73 in 10.0 mi NE 11.5 mph - N/A Rain Light Rain
11:15 AM 35.1 °F 25.9 °F 26.8 °F 72% 29.72 in 10.0 mi ENE 13.8 mph 18.4 mph N/A Rain Light Rain
11:35 AM 35.1 °F 24.5 °F 26.4 °F 71% 29.71 in 10.0 mi East 18.4 mph - N/A Snow Light Snow
11:55 AM 35.1 °F 25.5 °F 28.6 °F 77% 29.70 in 5.0 mi ENE 15.0 mph 18.4 mph N/A Snow Light Snow
12:15 PM 32.5 °F 22.3 °F 31.5 °F 96% 29.71 in 0.5 mi ENE 15.0 mph 20.7 mph N/A Snow Snow
12:35 PM 32.5 °F 22.7 °F 32.4 °F 99% 29.69 in 1.0 mi NE 13.8 mph - N/A Snow Light Snow
12:55 PM 32.5 °F 24.2 °F 32.5 °F 100% 29.68 in 2.5 mi NE 10.4 mph - N/A Snow Light Snow
1:15 PM 32.5 °F 22.7 °F 32.4 °F 99% 29.66 in 7.0 mi NE 13.8 mph - N/A   Overcast
1:35 PM 32.5 °F 23.2 °F 32.0 °F 98% 29.65 in 7.0 mi ENE 12.7 mph 18.4 mph N/A   Overcast
1:55 PM 32.5 °F 22.7 °F 32.0 °F 98% 29.63 in 7.0 mi NE 13.8 mph 18.4 mph N/A   Overcast
2:15 PM 32.7 °F 23.0 °F 32.0 °F 97% 29.62 in 10.0 mi NE 13.8 mph 17.3 mph N/A   Overcast
2:35 PM 32.9 °F 23.2 °F 32.0 °F 96% 29.61 in 10.0 mi ENE 13.8 mph 17.3 mph N/A   Overcast
2:55 PM 33.3 °F 22.8 °F 32.2 °F 96% 29.59 in 10.0 mi ENE 16.1 mph - N/A   Overcast
3:15 PM 33.1 °F 22.2 °F 32.0 °F 96% 29.55 in 10.0 mi NE 17.3 mph - N/A   Overcast
3:35 PM 33.4 °F 20.6 °F 32.4 °F 96% 29.51 in 10.0 mi ENE 25.3 mph 32.2 mph N/A   Overcast
3:55 PM 33.8 °F 23.9 °F 32.5 °F 95% 29.53 in 10.0 mi ENE 15.0 mph 26.5 mph N/A   Overcast
4:15 PM 35.1 °F 26.4 °F 33.4 °F 94% 29.56 in 10.0 mi ENE 12.7 mph - N/A   Overcast
4:35 PM 35.1 °F 25.2 °F 33.8 °F 95% 29.53 in 10.0 mi ENE 16.1 mph - N/A   Overcast
4:55 PM 35.1 °F 25.9 °F 34.0 °F 96% 29.53 in 10.0 mi ENE 13.8 mph 18.4 mph N/A   Overcast
5:15 PM 35.1 °F 27.4 °F 34.2 °F 97% 29.52 in 10.0 mi ENE 10.4 mph - N/A   Overcast
5:35 PM 35.1 °F 25.2 °F 34.2 °F 97% 29.50 in 10.0 mi ENE 16.1 mph 21.9 mph N/A   Overcast
5:55 PM 35.1 °F 25.5 °F 34.3 °F 97% 29.50 in 10.0 mi ENE 15.0 mph 20.7 mph N/A   Overcast
6:15 PM 35.1 °F 26.4 °F 34.7 °F 99% 29.48 in 5.0 mi ENE 12.7 mph - N/A   Overcast
6:35 PM 34.7 °F 25.5 °F 34.7 °F 100% 29.47 in 5.0 mi ENE 13.8 mph 21.9 mph N/A   Overcast
6:55 PM 35.1 °F 27.4 °F 34.9 °F 99% 29.49 in 7.0 mi East 10.4 mph 21.9 mph N/A   Overcast
7:15 PM 33.8 °F 23.2 °F 33.8 °F 100% 29.47 in 1.8 mi ENE 17.3 mph 20.7 mph N/A Snow Light Snow
7:35 PM 32.5 °F 21.9 °F 32.5 °F 100% 29.44 in 2.5 mi ENE 16.1 mph 24.2 mph N/A Snow Light Snow
8:15 PM 32.5 °F 27.1 °F 32.5 °F 100% 29.47 in 4.0 mi East 5.8 mph - N/A Snow Light Snow
8:35 PM 32.5 °F 29.3 °F 32.5 °F 100% 29.48 in 3.0 mi East 3.5 mph - N/A Snow Light Snow
8:55 PM 32.5 °F 28.1 °F 32.5 °F 100% 29.47 in 2.5 mi ENE 4.6 mph - N/A Snow Light Snow
9:15 PM 32.5 °F 26.2 °F 32.5 °F 100% 29.46 in 3.0 mi ENE 6.9 mph - N/A Snow Light Snow
9:35 PM 32.5 °F 27.1 °F 32.5 °F 100% 29.45 in 2.5 mi NE 5.8 mph - N/A Snow Light Snow
9:55 PM 32.5 °F 27.1 °F 32.5 °F 100% 29.45 in 2.5 mi NNE 5.8 mph - N/A Snow Light Snow
10:15 PM 32.5 °F - 32.5 °F 100% 29.46 in 1.8 mi Calm Calm - N/A Snow Light Snow
10:35 PM 32.5 °F 29.3 °F 32.5 °F 100% 29.46 in 2.5 mi NNE 3.5 mph - N/A Snow Light Snow
10:55 PM 32.5 °F 29.3 °F 32.5 °F 100% 29.46 in 2.5 mi NNE 3.5 mph - N/A Snow Light Snow
11:15 PM 32.5 °F 29.3 °F 32.5 °F 100% 29.46 in 2.5 mi North 3.5 mph - N/A Snow Light Snow
11:35 PM 32.5 °F 29.3 °F 32.5 °F 100% 29.46 in 2.5 mi NNE 3.5 mph - N/A Snow Light Snow
11:55 PM 32.5 °F 28.1 °F 32.5 °F 100% 29.45 in 3.0 mi NNE 4.6 mph - N/A   Overcast